QPF
0.00 0.00 0.00 0.00 0.00 0.00 0.00 0.00 0.00 0.00 0.00 0.00 0.00 0.00 0.00 0.00 0.00 0.00 0.00 0.00 0.00 0.00 0.00 0.00 0.00 0.00 0.00 0.00 0.00 0.00 0.00 0.00 0.00 0.00 0.00 0.00 0.00 0.00 0.00 0.00 0.00 0.00 0.00 0.00
0.00 0.00 0.00 0.00 0.00 0.00 0.00 0.00 0.00 0.00 0.00 0.00 0.00 0.00 0.00 0.00 0.00 0.00 0.00 0.00 0.00 0.00 0.00 0.00 0.00 0.00 0.00 0.00 0.00 0.00 0.00 0.00 0.00 0.00 0.00 0.00 0.00 0.00 0.00 0.00 0.00 0.00 0.00 0.00
0.00 0.00 0.00 0.00 0.00 0.00 0.00 0.00 0.00 0.00 0.00 0.00 0.00 0.00 0.00 0.00 0.00 0.00 0.00 0.00 0.00 0.00 0.00 0.00 0.00 0.00 0.00 0.00 0.00 0.00 0.00 0.00 0.00 0.00 0.00 0.00 0.00 0.00 0.00 0.00 0.00 0.00 0.00 0.00
0.00 0.00 0.00 0.00 0.00 0.00 0.00 0.00 0.00 0.00 0.00 0.00 0.00 0.00 0.00 0.00 0.00 0.00 0.00 0.00 0.00 0.00 0.00 0.00 0.00 0.00 0.00 0.00 0.00 0.00 0.00 0.00 0.00 0.00 0.00 0.00 0.00 0.00 0.00 0.00 0.00 0.00 0.00 0.00
0.00 0.00 0.00 0.00 0.00 0.00 0.00 0.00 0.00 0.00 0.00 0.00 0.00 0.00 0.00 0.00 0.00 0.00 0.00 0.00 0.00 0.00 0.00 0.00 0.00 0.00 0.00 0.00 0.00 0.00 0.00 0.00 0.00 0.00 0.00 0.00 0.00 0.00 0.00 0.00 0.00 0.00 0.00 0.00
0.00 0.00 0.00 0.00 0.00 0.00 0.00 0.00 0.00 0.00 0.00 0.00 0.00 0.00 0.00 0.00 0.00 0.00 0.00 0.00 0.00 0.00 0.00 0.00 0.00 0.00 0.00 0.00 0.00 0.00 0.00 0.00 0.00 0.00 0.00 0.00 0.00 0.00 0.00 0.00 0.00 0.00 0.00 0.00
0.00 0.00 0.00 0.00 0.00 0.00 0.00 0.00 0.00 0.00 0.00 0.00 0.00 0.00 0.00 0.00 0.00 0.00 0.00 0.00 0.00 0.00 0.00 0.00 0.00 0.00 0.00 0.00 0.00 0.00 0.00 0.00 0.00 0.00 0.00 0.00 0.00 0.00 0.00 0.00 0.00 0.00 0.00 0.00
0.00 0.00 0.00 0.00 0.00 0.00 0.00 0.00 0.00 0.00 0.00 0.00 0.00 0.00 0.00 0.00 0.00 0.00 0.00 0.00 0.00 0.00 0.00 0.00 0.00 0.00 0.00 0.00 0.00 0.00 0.00 0.00 0.00 0.00 0.00 0.00 0.00 0.00 0.00 0.00 0.00 0.00 0.00 0.00
0.00 0.00 0.00 0.00 0.00 0.00 0.00 0.00 0.00 0.00 0.00 0.00 0.00 0.00 0.00 0.00 0.00 0.00 0.00 0.00 0.00 0.00 0.00 0.00 0.00 0.00 0.00 0.00 0.00 0.00 0.00 0.00 0.00 0.00 0.00 0.00 0.00 0.00 0.00 0.00 0.00 0.00 0.00 0.00
0.00 0.00 0.00 0.00 0.00 0.00 0.00 0.00 0.00 0.00 0.00 0.00 0.00 0.00 0.00 0.00 0.00 0.00 0.00 0.00 0.00 0.00 0.00 0.00 0.00 0.00 0.00 0.00 0.00 0.00 0.00 0.00 0.00 0.00 0.00 0.00 0.00 0.00 0.00 0.00 0.00 0.00 0.00 0.00
0.00 0.00 0.00 0.00 0.00 0.00 0.00 0.00 0.00 0.00 0.00 0.00 0.00 0.00 0.00 0.00 0.00 0.00 0.00 0.00 0.00 0.00 0.00 0.00 0.00 0.00 0.00 0.00 0.00 0.00 0.00 0.00 0.00 0.00 0.00 0.00 0.00 0.00 0.00 0.00 0.00 0.00 0.00 0.00
0.00 0.00 0.00 0.00 0.00 0.00 0.00 0.00 0.00 0.00 0.00 0.00 0.00 0.00 0.00 0.00 0.00 0.00 0.00 0.00 0.00 0.00 0.00 0.00 0.00 0.00 0.00 0.00 0.00 0.00 0.00 0.00 0.00 0.00 0.00 0.00 0.00 0.00 0.00 0.00 0.00 0.00 0.00 0.00
0.00 0.00 0.00 0.00 0.00 0.00 0.00 0.00 0.00 0.00 0.00 0.00 0.00 0.00 0.00 0.00 0.00 0.00 0.00 0.00 0.00 0.00 0.00 0.00 0.00 0.00 0.00 0.00 0.00 0.00 0.00 0.00 0.00 0.00 0.00 0.00 0.00 0.00 0.00 0.00 0.00 0.00 0.00 0.00
0.00 0.00 0.00 0.00 0.00 0.00 0.00 0.00 0.00 0.00 0.00 0.00 0.00 0.00 0.00 0.00 0.00 0.00 0.00 0.00 0.00 0.00 0.00 0.00 0.00 0.00 0.00 0.00 0.00 0.00 0.00 0.00 0.00 0.00 0.00 0.00 0.00 0.00 0.00 0.00 0.00 0.00 0.00 0.00
0.00 0.00 0.00 0.00 0.00 0.00 0.00 0.00 0.00 0.00 0.00 0.00 0.00 0.00 0.00 0.00 0.00 0.00 0.00 0.00 0.00 0.00 0.00 0.00 0.00 0.00 0.00 0.00 0.00 0.00 0.00 0.00 0.00 0.00 0.00 0.00 0.00 0.00 0.00 0.00 0.00 0.00 0.00 0.00
0.00 0.00 0.00 0.00 0.00 0.00 0.00 0.00 0.00 0.00 0.00 0.00 0.00 0.00 0.00 0.00 0.00 0.00 0.00 0.00 0.00 0.00 0.00 0.00 0.00 0.00 0.00 0.00 0.00 0.00 0.00 0.00 0.00 0.00 0.00 0.00 0.00 0.00 0.00 0.00 0.00 0.00 0.00 0.00
0.00 0.00 0.00 0.00 0.00 0.00 0.00 0.00 0.00 0.00 0.00 0.00 0.00 0.00 0.00 0.00 0.00 0.00 0.00 0.00 0.00 0.00 0.00 0.00 0.00 0.00 0.00 0.00 0.00 0.00 0.00 0.00 0.00 0.00 0.00 0.00 0.00 0.00 0.00 0.00 0.00 0.00 0.00 0.00
0.00 0.00 0.00 0.00 0.00 0.00 0.00 0.00 0.00 0.00 0.00 0.00 0.00 0.00 0.00 0.00 0.00 0.00 0.00 0.00 0.00 0.00 0.00 0.00 0.00 0.00 0.00 0.00 0.00 0.00 0.00 0.00 0.00 0.00 0.00 0.00 0.00 0.00 0.00 0.00 0.00 0.00 0.00 0.00
0.00 0.00 0.00 0.00 0.00 0.00 0.00 0.00 0.00 0.00 0.00 0.00 0.00 0.00 0.00 0.00 0.00 0.00 0.00 0.00 0.00 0.00 0.00 0.00 0.00 0.00 0.00 0.00 0.00 0.00 0.00 0.00 0.00 0.00 0.00 0.00 0.00 0.00 0.00 0.00 0.00 0.00 0.00 0.00
0.00 0.00 0.00 0.00 0.00 0.00 0.00 0.00 0.00 0.00 0.00 0.00 0.00 0.00 0.00 0.00 0.00 0.00 0.00 0.00 0.00 0.00 0.00 0.00 0.00 0.00 0.00 0.00 0.00 0.00 0.00 0.00 0.00 0.00 0.00 0.00 0.00 0.00 0.00 0.00 0.00 0.00 0.00 0.00
0.00 0.00 0.00 0.00 0.00 0.00 0.00 0.00 0.00 0.00 0.00 0.00 0.00 0.00 0.00 0.00 0.00 0.00 0.00 0.00 0.00 0.00 0.00 0.00 0.00 0.00 0.00 0.00 0.00 0.00 0.00 0.00 0.00 0.00 0.00 0.00 0.00 0.00 0.00 0.00 0.00 0.00 0.00 0.00
0.00 0.00 0.00 0.00 0.00 0.00 0.00 0.00 0.00 0.00 0.00 0.00 0.00 0.00 0.00 0.00 0.00 0.00 0.00 0.00 0.00 0.00 0.00 0.00 0.00 0.00 0.00 0.00 0.00 0.00 0.00 0.00 0.00 0.00 0.00 0.00 0.00 0.00 0.00 0.00 0.00 0.00 0.00 0.00
0.00 0.00 0.00 0.00 0.00 0.00 0.00 0.00 0.00 0.00 0.00 0.00 0.00 0.00 0.00 0.00 0.00 0.00 0.00 0.00 0.00 0.00 0.00 0.00 0.00 0.00 0.00 0.00 0.00 0.00 0.00 0.00 0.00 0.00 0.00 0.00 0.00 0.00 0.00 0.00 0.00 0.00 0.00 0.00
0.00 0.00 0.00 0.00 0.00 0.00 0.00 0.00 0.00 0.00 0.00 0.00 0.00 0.00 0.00 0.00 0.00 0.00 0.00 0.00 0.00 0.00 0.00 0.00 0.00 0.00 0.00 0.00 0.00 0.00 0.00 0.00 0.00 0.00 0.00 0.00 0.00 0.00 0.00 0.00 0.00 0.00 0.00 0.00
0.00 0.00 0.00 0.00 0.00 0.00 0.00 0.00 0.00 0.00 0.00 0.00 0.00 0.00 0.00 0.00 0.00 0.00 0.00 0.00 0.00 0.00 0.00 0.00 0.00 0.00 0.00 0.00 0.00 0.00 0.00 0.00 0.00 0.00 0.00 0.00 0.00 0.00 0.00 0.00 0.00 0.00 0.00 0.00
0.00 0.00 0.00 0.00 0.00 0.00 0.00 0.00 0.00 0.00 0.00 0.00 0.00 0.00 0.00 0.00 0.00 0.00 0.00 0.00 0.00 0.00 0.00 0.00 0.00 0.00 0.00 0.00 0.00 0.00 0.00 0.00 0.00 0.00 0.00 0.00 0.00 0.00 0.00 0.00 0.00 0.00 0.00 0.00
MSLP
1015.98 1015.52 1014.38 1013.86 1013.95 1013.56 1013.49 1013.13 1012.42 1011.80 1011.86 1011.62 1010.53 1009.85 1008.28 1008.27 1008.38 1007.82 1007.45 1007.19 1007.08 1007.18 1007.28 1007.81 1008.31 1009.19 1009.96 1010.64 1011.32 1012.13 1013.01 1013.96 1014.86 1015.63 1016.25 1016.99 1017.26 1018.01 1018.36 1018.64 1019.15 1019.39 1019.56 1019.79
1016.03 1014.82 1014.08 1014.44 1014.35 1014.24 1013.78 1013.25 1012.56 1011.91 1011.74 1011.70 1010.42 1009.27 1008.16 1007.25 1007.22 1006.75 1006.13 1005.85 1005.76 1006.01 1006.47 1007.21 1007.81 1008.47 1009.19 1009.78 1010.56 1011.49 1012.26 1013.29 1014.17 1014.86 1015.46 1016.07 1016.88 1017.78 1018.12 1018.75 1019.18 1019.50 1019.66 1019.83
1015.24 1014.78 1014.68 1014.60 1014.57 1014.33 1013.71 1013.28 1012.69 1012.59 1011.98 1011.52 1010.66 1008.29 1007.17 1006.05 1006.17 1005.61 1004.91 1004.63 1004.93 1004.96 1005.37 1006.05 1006.85 1007.45 1008.24 1008.86 1009.56 1010.50 1011.48 1012.50 1013.46 1014.30 1015.32 1016.11 1017.08 1017.87 1018.30 1018.73 1019.08 1019.48 1019.72 1019.99
1015.44 1015.05 1014.93 1014.75 1014.35 1014.25 1013.53 1013.15 1013.02 1012.95 1012.82 1011.43 1011.01 1008.12 1006.58 1005.58 1005.32 1004.83 1003.99 1004.26 1004.21 1004.26 1004.73 1005.17 1005.72 1006.52 1007.15 1007.75 1008.76 1009.66 1010.73 1011.84 1012.89 1013.84 1014.37 1014.97 1015.42 1016.30 1016.89 1017.88 1018.67 1019.29 1019.78 1020.00
1014.98 1015.03 1014.99 1014.70 1014.15 1014.09 1013.46 1013.49 1013.44 1013.26 1012.81 1012.25 1010.46 1009.58 1006.01 1005.73 1004.63 1003.57 1003.50 1004.05 1004.19 1004.30 1004.40 1004.62 1005.03 1005.69 1006.23 1007.26 1008.08 1009.01 1010.11 1011.29 1012.28 1013.15 1013.67 1014.35 1015.03 1015.89 1016.76 1017.70 1018.57 1019.15 1019.72 1019.97
1015.38 1015.39 1015.11 1014.48 1014.39 1014.36 1014.19 1013.83 1013.71 1013.63 1013.23 1011.97 1009.84 1009.03 1005.68 1004.90 1003.96 1003.65 1004.03 1004.08 1004.18 1004.33 1004.56 1004.73 1004.99 1005.63 1006.23 1007.15 1007.86 1008.52 1009.45 1010.59 1011.77 1012.63 1013.28 1013.80 1014.58 1015.64 1016.59 1017.33 1018.03 1018.76 1019.28 1019.65
1015.50 1014.89 1014.81 1014.70 1014.50 1014.46 1014.48 1014.26 1013.80 1013.46 1013.14 1010.86 1010.30 1009.27 1006.41 1004.77 1004.31 1004.75 1004.71 1004.50 1004.53 1004.97 1005.00 1005.16 1005.40 1005.70 1006.03 1006.71 1007.43 1008.21 1009.10 1010.16 1011.30 1012.24 1012.95 1013.67 1014.36 1015.24 1015.88 1016.72 1017.25 1017.98 1018.62 1019.26
1016.27 1015.28 1014.90 1014.93 1014.52 1014.25 1014.31 1014.41 1013.91 1013.09 1012.52 1011.16 1010.43 1008.16 1005.43 1004.83 1005.05 1005.40 1005.52 1005.55 1005.44 1005.36 1005.22 1005.27 1005.55 1005.89 1006.38 1006.95 1007.43 1008.01 1008.75 1009.77 1010.81 1011.84 1012.79 1013.63 1014.41 1015.10 1015.69 1016.37 1016.92 1017.52 1017.98 1018.75
1017.72 1016.22 1015.52 1015.34 1015.08 1014.95 1014.66 1014.38 1014.07 1013.90 1013.76 1012.62 1009.58 1007.65 1006.15 1004.68 1005.41 1005.63 1005.70 1005.44 1005.84 1005.80 1005.74 1005.73 1005.87 1006.10 1006.53 1007.00 1007.51 1007.90 1008.55 1009.59 1010.55 1011.55 1012.63 1013.52 1014.31 1014.98 1015.55 1016.20 1016.87 1017.52 1017.90 1018.55
1019.63 1018.05 1016.32 1015.80 1015.65 1015.37 1015.12 1014.94 1014.67 1014.47 1013.65 1011.65 1009.30 1008.00 1005.88 1005.30 1005.90 1005.92 1005.84 1006.22 1006.51 1006.34 1006.23 1006.30 1006.54 1006.72 1006.83 1007.21 1007.77 1008.28 1008.83 1009.27 1010.18 1011.33 1012.43 1013.30 1014.17 1014.95 1015.61 1016.25 1016.83 1017.44 1017.95 1018.43
1021.05 1019.59 1017.28 1016.55 1015.88 1015.42 1015.68 1015.35 1015.33 1014.99 1014.05 1012.25 1010.20 1007.47 1006.16 1006.38 1006.71 1006.64 1006.78 1006.94 1006.98 1006.79 1006.84 1006.96 1007.07 1007.32 1007.56 1007.64 1007.90 1008.47 1008.94 1009.54 1010.31 1011.17 1012.23 1013.26 1014.17 1015.00 1015.67 1016.16 1016.70 1017.23 1017.93 1018.21
1022.13 1021.12 1018.95 1017.37 1016.52 1016.66 1016.45 1016.16 1015.92 1015.82 1014.62 1013.64 1011.92 1008.23 1007.35 1007.27 1007.65 1007.73 1007.64 1007.42 1007.19 1007.36 1007.37 1007.34 1007.46 1007.59 1007.88 1008.20 1008.28 1008.39 1008.93 1009.47 1010.07 1010.87 1011.98 1013.02 1014.09 1014.79 1015.47 1015.92 1016.50 1017.19 1017.76 1018.04
1022.90 1022.14 1020.69 1018.43 1018.06 1018.04 1018.11 1018.34 1018.35 1018.15 1016.85 1014.38 1012.94 1009.38 1008.74 1008.48 1008.49 1008.75 1008.70 1008.08 1007.51 1007.19 1007.26 1007.45 1007.58 1007.83 1007.99 1008.07 1008.45 1008.73 1009.14 1009.57 1010.12 1010.81 1011.78 1012.81 1013.74 1014.50 1015.17 1015.90 1016.46 1017.09 1017.78 1018.13
1023.38 1023.05 1022.51 1021.19 1020.22 1020.46 1019.92 1019.49 1019.51 1019.97 1018.72 1015.91 1013.10 1011.91 1011.40 1011.05 1009.52 1008.77 1008.58 1008.35 1008.02 1007.54 1007.42 1007.57 1007.71 1007.73 1007.84 1008.15 1008.28 1008.78 1009.28 1009.76 1010.26 1010.81 1011.60 1012.59 1013.32 1014.21 1014.90 1015.77 1016.37 1016.98 1017.63 1018.05
1024.19 1023.92 1023.54 1022.73 1022.16 1021.68 1020.92 1020.09 1019.47 1019.56 1018.93 1018.17 1013.53 1014.26 1014.03 1013.39 1012.39 1010.55 1009.23 1009.09 1008.67 1008.10 1007.32 1007.59 1007.69 1007.63 1007.69 1007.90 1008.26 1008.60 1009.04 1009.52 1010.15 1010.82 1011.56 1012.28 1013.18 1014.00 1014.81 1015.52 1016.23 1016.89 1017.38 1017.78
1024.59 1024.05 1023.88 1023.04 1022.68 1022.12 1021.07 1020.23 1019.67 1018.75 1018.25 1016.88 1015.95 1013.63 1014.29 1013.44 1012.95 1012.02 1011.18 1010.57 1009.84 1008.88 1008.34 1007.76 1007.60 1007.51 1007.49 1007.53 1007.57 1007.93 1008.46 1009.16 1009.78 1010.56 1011.27 1012.10 1012.96 1013.68 1014.42 1015.22 1016.03 1016.77 1017.14 1017.49
1024.76 1024.56 1024.65 1023.19 1023.02 1022.47 1020.80 1019.54 1018.71 1018.18 1017.64 1016.96 1015.77 1014.87 1015.11 1014.50 1013.70 1012.87 1011.78 1011.19 1010.73 1009.80 1009.12 1008.33 1007.92 1007.49 1006.99 1006.85 1006.93 1007.16 1007.51 1008.26 1009.26 1009.86 1010.62 1011.49 1012.31 1013.20 1013.91 1014.78 1015.72 1016.36 1016.72 1017.09
1024.17 1024.42 1024.66 1023.63 1023.81 1021.88 1019.37 1018.73 1018.26 1017.48 1016.86 1016.27 1015.68 1015.35 1015.07 1014.85 1014.00 1012.95 1011.78 1011.77 1011.40 1010.70 1009.55 1008.50 1007.82 1007.13 1006.59 1006.21 1006.33 1006.59 1007.14 1007.63 1008.24 1009.08 1009.94 1010.85 1011.70 1012.55 1013.42 1014.33 1015.08 1015.70 1016.09 1016.57
1023.35 1023.86 1023.84 1023.67 1022.58 1020.80 1019.52 1018.19 1017.42 1016.96 1016.14 1016.32 1016.15 1015.51 1015.19 1014.77 1013.54 1011.55 1011.43 1011.59 1011.49 1010.59 1009.40 1008.39 1007.47 1006.72 1006.12 1005.65 1005.49 1005.95 1006.51 1006.95 1007.70 1008.35 1009.06 1009.88 1010.84 1011.77 1012.62 1013.45 1014.21 1014.84 1015.48 1015.90
1022.53 1023.11 1023.32 1023.64 1021.90 1019.77 1017.81 1017.00 1017.06 1016.95 1014.98 1015.28 1015.55 1015.12 1014.76 1014.41 1013.32 1011.85 1011.63 1011.82 1010.77 1009.93 1008.92 1007.70 1006.70 1006.11 1005.50 1004.83 1004.91 1005.32 1005.52 1005.97 1006.47 1007.07 1007.71 1008.81 1009.77 1010.61 1011.52 1012.37 1013.22 1014.04 1014.81 1015.01
1022.34 1022.27 1021.77 1021.16 1020.23 1018.39 1016.99 1016.30 1016.54 1016.03 1014.89 1014.62 1014.62 1014.58 1014.34 1013.94 1013.86 1012.60 1011.76 1011.04 1010.56 1009.36 1007.99 1007.00 1006.29 1005.58 1004.68 1004.26 1004.32 1004.26 1004.78 1004.66 1004.98 1006.19 1007.08 1008.03 1008.83 1009.55 1010.35 1011.46 1012.52 1013.63 1014.34 1014.65
1020.03 1020.40 1020.26 1019.94 1019.00 1017.26 1015.31 1016.11 1015.94 1014.38 1014.11 1014.26 1013.87 1013.80 1013.60 1013.12 1012.58 1011.92 1011.42 1010.64 1009.62 1008.56 1007.18 1006.54 1005.97 1005.13 1004.32 1003.97 1003.83 1003.65 1003.85 1004.28 1004.98 1005.77 1006.57 1007.42 1008.22 1009.04 1009.86 1010.70 1011.85 1012.96 1013.68 1014.16
1018.67 1017.89 1017.52 1018.04 1016.39 1014.88 1014.52 1014.33 1014.11 1014.04 1014.00 1013.72 1013.71 1013.21 1012.92 1012.38 1011.84 1011.29 1010.67 1010.17 1009.24 1008.39 1007.15 1006.49 1006.00 1005.15 1004.63 1004.28 1003.85 1003.49 1003.67 1004.12 1004.83 1005.55 1006.41 1007.10 1007.99 1008.58 1009.31 1010.30 1011.14 1012.06 1012.46 1013.21
1016.84 1016.78 1016.55 1015.98 1014.56 1013.84 1014.09 1014.02 1013.80 1013.50 1013.38 1013.14 1012.95 1012.63 1012.45 1012.09 1011.38 1010.76 1010.23 1009.93 1009.22 1008.36 1007.31 1006.84 1006.27 1005.61 1005.23 1004.82 1004.41 1003.90 1003.89 1004.12 1004.72 1005.25 1006.24 1007.01 1007.64 1008.54 1009.17 1009.66 1010.39 1011.59 1011.48 1012.06
1014.94 1015.38 1014.59 1014.26 1012.88 1012.71 1012.94 1013.03 1012.70 1012.45 1012.48 1012.44 1012.13 1011.99 1011.85 1011.58 1010.90 1010.50 1009.85 1009.64 1009.11 1008.56 1007.85 1007.47 1007.32 1006.68 1006.19 1005.67 1005.31 1004.86 1004.62 1004.59 1004.97 1005.40 1006.17 1006.95 1007.33 1008.10 1008.85 1009.17 1009.13 1010.20 1010.80 1010.78
1013.65 1013.05 1013.42 1012.17 1011.35 1011.69 1011.81 1011.81 1011.78 1011.85 1011.59 1011.54 1011.52 1011.11 1011.08 1011.08 1010.48 1010.12 1009.63 1009.40 1009.20 1008.54 1008.48 1008.00 1007.99 1007.78 1007.20 1006.80 1006.33 1005.91 1005.59 1005.38 1005.40 1005.72 1006.26 1006.66 1007.13 1007.90 1008.37 1008.91 1009.37 1009.96 1010.58 1010.74
Thickness
5513 5520 5529 5536 5535 5540 5535 5537 5544 5557 5555 5553 5565 5567 5590 5592 5587 5594 5602 5608 5612 5617 5626 5625 5623 5619 5617 5615 5613 5612 5609 5607 5603 5601 5599 5596 5598 5594 5594 5594 5593 5592 5591 5590
5510 5521 5530 5521 5522 5521 5526 5530 5538 5549 5549 5544 5558 5564 5585 5594 5591 5597 5606 5612 5618 5621 5623 5619 5619 5618 5616 5617 5615 5611 5610 5607 5604 5602 5601 5599 5595 5590 5590 5587 5586 5584 5584 5583
5516 5519 5512 5512 5513 5514 5521 5524 5531 5530 5541 5541 5544 5567 5582 5600 5593 5600 5610 5617 5619 5623 5624 5624 5619 5620 5618 5618 5619 5616 5612 5607 5603 5600 5595 5591 5586 5583 5582 5581 5580 5578 5576 5574
5509 5509 5507 5509 5512 5512 5517 5523 5521 5521 5521 5534 5537 5549 5581 5598 5593 5598 5608 5607 5613 5617 5619 5623 5623 5620 5622 5624 5619 5616 5611 5605 5601 5596 5596 5594 5597 5592 5588 5581 5576 5573 5569 5568
5516 5508 5503 5504 5511 5508 5515 5510 5510 5511 5516 5515 5540 5528 5572 5580 5592 5605 5604 5598 5606 5609 5614 5617 5621 5620 5622 5618 5617 5614 5608 5602 5599 5596 5595 5593 5592 5587 5581 5575 5569 5566 5562 5561
5500 5493 5498 5505 5501 5499 5498 5503 5500 5495 5502 5502 5538 5535 5565 5582 5593 5599 5590 5593 5596 5601 5602 5607 5612 5612 5613 5611 5609 5609 5606 5602 5597 5594 5592 5591 5588 5580 5575 5570 5567 5562 5559 5556
5493 5496 5490 5490 5494 5491 5489 5494 5496 5504 5490 5520 5506 5513 5546 5575 5580 5577 5576 5580 5584 5586 5590 5592 5596 5601 5606 5607 5607 5605 5602 5598 5593 5589 5587 5584 5581 5576 5573 5568 5566 5561 5557 5553
5476 5494 5485 5479 5489 5491 5487 5485 5491 5498 5511 5518 5499 5520 5555 5565 5563 5560 5563 5563 5566 5572 5579 5581 5586 5591 5592 5593 5596 5597 5596 5593 5589 5584 5579 5575 5571 5569 5567 5563 5561 5558 5555 5550
5448 5467 5467 5463 5466 5472 5474 5474 5486 5473 5414 5460 5515 5529 5541 5558 5549 5551 5554 5558 5555 5560 5565 5570 5573 5579 5583 5584 5586 5589 5589 5585 5581 5576 5571 5567 5564 5561 5559 5556 5553 5549 5548 5544
5412 5425 5446 5450 5450 5452 5458 5461 5465 5463 5465 5485 5507 5496 5537 5547 5538 5538 5545 5542 5543 5550 5554 5557 5559 5564 5569 5573 5575 5576 5576 5577 5573 5567 5563 5560 5557 5553 5551 5548 5545 5542 5540 5538
5381 5397 5434 5437 5445 5454 5441 5447 5442 5453 5459 5478 5486 5519 5534 5528 5523 5523 5525 5527 5528 5535 5540 5540 5544 5548 5554 5559 5563 5564 5566 5565 5563 5560 5556 5552 5548 5544 5541 5541 5539 5537 5533 5533
5359 5361 5386 5417 5431 5418 5424 5432 5439 5444 5457 5446 5449 5492 5519 5511 5507 5509 5512 5517 5522 5520 5529 5530 5531 5536 5539 5544 5549 5554 5556 5557 5556 5554 5549 5544 5539 5536 5535 5534 5532 5529 5527 5527
5342 5342 5352 5394 5395 5390 5378 5382 5384 5371 5392 5427 5438 5481 5496 5496 5495 5491 5489 5501 5513 5517 5520 5523 5521 5523 5529 5535 5537 5540 5543 5545 5546 5545 5542 5537 5533 5530 5527 5525 5523 5521 5518 5516
5330 5325 5329 5348 5358 5349 5348 5363 5363 5346 5349 5391 5426 5442 5450 5447 5461 5480 5487 5494 5497 5507 5510 5514 5516 5516 5519 5522 5528 5529 5531 5533 5534 5535 5534 5529 5527 5523 5520 5517 5516 5513 5510 5508
5302 5293 5295 5310 5319 5320 5326 5335 5345 5338 5345 5338 5404 5378 5394 5410 5427 5452 5469 5474 5482 5492 5502 5499 5502 5508 5509 5513 5516 5519 5522 5524 5524 5523 5522 5521 5517 5515 5513 5511 5507 5505 5503 5502
5273 5280 5280 5279 5295 5294 5297 5319 5327 5340 5342 5355 5365 5385 5400 5412 5420 5433 5444 5449 5458 5466 5475 5485 5491 5498 5503 5507 5511 5514 5516 5515 5516 5515 5514 5511 5508 5508 5507 5503 5500 5496 5496 5494
5254 5256 5237 5266 5270 5260 5268 5303 5320 5324 5335 5336 5339 5362 5363 5370 5385 5402 5418 5426 5433 5449 5461 5470 5477 5485 5497 5502 5507 5511 5514 5512 5510 5511 5509 5506 5505 5503 5500 5496 5492 5489 5488 5488
5241 5234 5231 5238 5211 5224 5290 5301 5300 5306 5320 5330 5337 5340 5349 5350 5371 5392 5408 5414 5417 5425 5441 5454 5464 5476 5487 5496 5500 5504 5506 5507 5507 5506 5504 5502 5501 5497 5493 5489 5486 5484 5484 5481
5239 5235 5226 5217 5227 5236 5252 5278 5286 5278 5295 5301 5302 5321 5330 5337 5360 5403 5397 5400 5405 5416 5430 5443 5455 5466 5478 5488 5495 5496 5497 5501 5502 5502 5501 5499 5495 5491 5487 5484 5481 5479 5476 5475
5233 5226 5222 5173 5207 5215 5261 5275 5264 5260 5270 5298 5292 5306 5316 5323 5339 5378 5379 5384 5399 5411 5424 5438 5451 5459 5470 5481 5485 5491 5496 5498 5502 5503 5500 5493 5490 5488 5484 5482 5478 5474 5470 5470
5212 5212 5215 5221 5212 5227 5259 5268 5259 5238 5266 5277 5283 5288 5298 5307 5317 5344 5361 5377 5388 5405 5420 5434 5442 5450 5463 5473 5479 5488 5490 5500 5503 5494 5490 5488 5487 5486 5482 5476 5471 5464 5462 5462
5221 5208 5212 5214 5201 5206 5269 5247 5238 5262 5263 5258 5270 5277 5286 5300 5314 5333 5350 5365 5382 5399 5417 5425 5433 5444 5456 5464 5473 5482 5488 5489 5485 5484 5483 5481 5479 5477 5474 5472 5464 5458 5455 5453
5221 5235 5240 5222 5230 5258 5252 5253 5252 5248 5245 5252 5253 5267 5276 5289 5305 5325 5344 5357 5373 5388 5407 5414 5421 5435 5443 5449 5461 5474 5476 5475 5474 5475 5474 5472 5469 5468 5466 5462 5458 5453 5452 5449
5230 5219 5222 5229 5246 5252 5243 5241 5240 5244 5241 5244 5248 5256 5263 5276 5298 5316 5333 5345 5360 5374 5392 5399 5408 5420 5429 5436 5444 5455 5459 5461 5464 5466 5462 5460 5460 5456 5454 5454 5452 5446 5448 5445
5242 5221 5229 5228 5251 5253 5245 5238 5244 5247 5245 5242 5247 5250 5256 5268 5289 5307 5323 5335 5349 5361 5374 5385 5390 5401 5410 5419 5426 5434 5440 5446 5449 5452 5450 5448 5450 5446 5443 5445 5448 5444 5441 5444
5235 5237 5226 5239 5258 5246 5243 5245 5245 5240 5243 5245 5243 5250 5255 5262 5281 5297 5313 5326 5336 5351 5356 5368 5376 5383 5391 5400 5408 5415 5422 5429 5435 5437 5437 5439 5438 5435 5435 5434 5433 5432 5430 5431